• In Hungary
  • List of Countries
  • For 7 days
  • Water Temperature
  • Satellite Maps
  • Weather Map
  • News
  • Weather Widgets
  • user-avatar
    Login

    Hourly Weather Preston

    Today, 20 May, Sunday

    Time Temperature Precipitation Wind Pressure Humidity
    00:00 +13°C° 0 mm 2 mps 763 mmHg 81%
    01:00 +13°C° 0 mm 2 mps 763 mmHg 82%
    02:00 +12°C° 0 mm 2 mps 763 mmHg 84%
    03:00 +12°C° 0 mm 2 mps 763 mmHg 86%
    04:00 +13°C° 0 mm 2 mps 763 mmHg 85%
    05:00 +13°C° 0 mm 2 mps 763 mmHg 84%
    06:00 +14°C° 0 mm 2 mps 763 mmHg 83%
    07:00 +15°C° 0 mm 2 mps 763 mmHg 78%
    08:00 +17°C° 0 mm 3 mps 763 mmHg 72%
    09:00 +18°C° 0 mm 3 mps 763 mmHg 66%
    10:00 +19°C° 0 mm 3 mps 763 mmHg 63%
    11:00 +20°C° 0 mm 3 mps 763 mmHg 61%
    12:00 +21°C° 0 mm 3 mps 763 mmHg 58%
    13:00 +21°C° 0 mm 3 mps 763 mmHg 57%
    14:00 +21°C° 0 mm 3 mps 763 mmHg 57%
    15:00 +22°C° 0 mm 3 mps 762 mmHg 56%
    16:00 +21°C° 0 mm 3 mps 762 mmHg 60%
    17:00 +20°C° 0 mm 3 mps 762 mmHg 64%
    18:00 +20°C° 0 mm 3 mps 762 mmHg 68%
    19:00 +18°C° 0 mm 2 mps 762 mmHg 71%
    20:00 +16°C° 0 mm 2 mps 762 mmHg 74%
    21:00 +15°C° 0 mm 1 mps 762 mmHg 78%
    22:00 +14°C° 0 mm 1 mps 762 mmHg 79%
    23:00 +14°C° 0 mm 2 mps 762 mmHg 81%

    Tomorrow, 21 May, Monday

    Time Temperature Precipitation Wind Pressure Humidity
    00:00 +14°C° 0 mm 2 mps 762 mmHg 82%
    01:00 +13°C° 0 mm 2 mps 762 mmHg 84%
    02:00 +13°C° 0 mm 2 mps 762 mmHg 87%
    03:00 +13°C° 0 mm 2 mps 762 mmHg 89%
    04:00 +13°C° 0 mm 2 mps 762 mmHg 88%
    05:00 +14°C° 0 mm 2 mps 762 mmHg 87%
    06:00 +14°C° 0 mm 2 mps 762 mmHg 86%
    07:00 +16°C° 0 mm 2 mps 761 mmHg 78%
    08:00 +17°C° 0 mm 2 mps 761 mmHg 70%
    09:00 +18°C° 0 mm 3 mps 761 mmHg 62%
    10:00 +19°C° 0 mm 2 mps 761 mmHg 59%
    11:00 +20°C° 0 mm 2 mps 760 mmHg 55%
    12:00 +21°C° 0 mm 2 mps 760 mmHg 52%
    13:00 +23°C° 0.1 mm 2 mps 760 mmHg 53%
    14:00 +23°C° 0.1 mm 2 mps 760 mmHg 54%
    15:00 +23°C° 0.1 mm 2 mps 760 mmHg 55%
    16:00 +22°C° 0.4 mm 3 mps 760 mmHg 60%
    17:00 +21°C° 0.4 mm 3 mps 760 mmHg 64%
    18:00 +20°C° 0.4 mm 3 mps 760 mmHg 69%
    19:00 +19°C° 0.3 mm 3 mps 760 mmHg 73%
    20:00 +17°C° 0.3 mm 3 mps 760 mmHg 77%
    21:00 +16°C° 0.3 mm 3 mps 760 mmHg 81%
    22:00 +14°C° 0 mm 3 mps 760 mmHg 83%
    23:00 +13°C° 0 mm 3 mps 760 mmHg 84%

    Day after tomorrow, 22 May, Tuesday

    Time Temperature Precipitation Wind Pressure Humidity
    00:00 +13°C° 0 mm 2 mps 760 mmHg 85%
    01:00 +13°C° 0 mm 2 mps 761 mmHg 86%
    02:00 +12°C° 0 mm 2 mps 761 mmHg 86%
    03:00 +12°C° 0 mm 2 mps 761 mmHg 87%
    04:00 +11°C° 0 mm 3 mps 761 mmHg 87%
    05:00 +12°C° 0 mm 3 mps 761 mmHg 87%
    06:00 +12°C° 0 mm 3 mps 761 mmHg 87%
    07:00 +13°C° 0 mm 3 mps 761 mmHg 83%
    08:00 +14°C° 0 mm 3 mps 761 mmHg 80%
    09:00 +15°C° 0 mm 4 mps 761 mmHg 77%
    10:00 +18°C° 0 mm 4 mps 762 mmHg 73%
    11:00 +19°C° 0 mm 4 mps 762 mmHg 70%
    12:00 +20°C° 0 mm 4 mps 762 mmHg 66%
    13:00 +20°C° 0 mm 4 mps 762 mmHg 66%
    14:00 +20°C° 0 mm 4 mps 762 mmHg 65%
    15:00 +20°C° 0 mm 4 mps 762 mmHg 65%
    16:00 +19°C° 0 mm 4 mps 762 mmHg 67%
    17:00 +19°C° 0 mm 5 mps 762 mmHg 70%
    18:00 +17°C° 0 mm 5 mps 763 mmHg 72%
    19:00 +17°C° 0 mm 4 mps 763 mmHg 76%
    20:00 +14°C° 0 mm 4 mps 764 mmHg 80%
    21:00 +12°C° 0 mm 4 mps 764 mmHg 83%
    22:00 +12°C° 0 mm 4 mps 765 mmHg 85%
    23:00 +11°C° 0 mm 3 mps 765 mmHg 86%

    23 May, Wednesday

    Time Temperature Precipitation Wind Pressure Humidity
    00:00 +10°C° 0 mm 3 mps 765 mmHg 88%
    01:00 +10°C° 0 mm 3 mps 765 mmHg 89%
    02:00 +10°C° 0 mm 3 mps 765 mmHg 89%
    03:00 +10°C° 0 mm 3 mps 765 mmHg 90%
    04:00 +10°C° 0 mm 3 mps 766 mmHg 89%
    05:00 +11°C° 0 mm 3 mps 766 mmHg 88%
    06:00 +11°C° 0 mm 4 mps 766 mmHg 87%
    07:00 +13°C° 0 mm 4 mps 766 mmHg 83%
    08:00 +14°C° 0 mm 4 mps 766 mmHg 78%
    09:00 +17°C° 0 mm 4 mps 766 mmHg 74%
    10:00 +18°C° 0 mm 4 mps 766 mmHg 70%
    11:00 +19°C° 0 mm 4 mps 766 mmHg 66%
    12:00 +21°C° 0 mm 4 mps 766 mmHg 63%
    13:00 +21°C° 0 mm 4 mps 766 mmHg 62%
    14:00 +21°C° 0 mm 5 mps 766 mmHg 61%
    15:00 +21°C° 0 mm 5 mps 766 mmHg 60%
    16:00 +21°C° 0 mm 5 mps 766 mmHg 62%
    17:00 +20°C° 0 mm 5 mps 766 mmHg 65%
    18:00 +19°C° 0 mm 5 mps 766 mmHg 67%
    19:00 +16°C° 0 mm 5 mps 766 mmHg 71%
    20:00 +15°C° 0 mm 5 mps 766 mmHg 74%
    21:00 +13°C° 0 mm 5 mps 767 mmHg 78%
    22:00 +13°C° 0 mm 5 mps 767 mmHg 79%
    23:00 +12°C° 0 mm 5 mps 767 mmHg 81%

    24 May, Thursday

    Time Temperature Precipitation Wind Pressure Humidity
    00:00 +10°C° 0 mm 5 mps 767 mmHg 83%
    01:00 +10°C° 0 mm 5 mps 767 mmHg 84%
    02:00 +10°C° 0 mm 5 mps 767 mmHg 85%
    03:00 +11°C° 0 mm 4 mps 767 mmHg 86%
    04:00 +10°C° 0 mm 5 mps 766 mmHg 85%
    05:00 +12°C° 0 mm 5 mps 766 mmHg 84%
    06:00 +12°C° 0 mm 5 mps 766 mmHg 82%
    07:00 +14°C° 0 mm 5 mps 766 mmHg 78%
    08:00 +16°C° 0 mm 6 mps 766 mmHg 75%
    09:00 +17°C° 0 mm 6 mps 766 mmHg 71%
    10:00 +19°C° 0 mm 6 mps 766 mmHg 67%
    11:00 +20°C° 0 mm 7 mps 766 mmHg 63%
    12:00 +21°C° 0 mm 7 mps 766 mmHg 59%
    13:00 +21°C° 0 mm 7 mps 765 mmHg 59%
    14:00 +21°C° 0 mm 7 mps 765 mmHg 58%
    15:00 +21°C° 0 mm 7 mps 765 mmHg 58%
    16:00 +20°C° 0 mm 6 mps 765 mmHg 61%
    17:00 +19°C° 0 mm 6 mps 765 mmHg 65%
    18:00 +19°C° 0 mm 6 mps 765 mmHg 68%
    19:00 +17°C° 0 mm 6 mps 765 mmHg 72%
    20:00 +15°C° 0 mm 6 mps 765 mmHg 75%
    21:00 +14°C° 0 mm 6 mps 766 mmHg 79%
    22:00 +14°C° 0 mm 6 mps 766 mmHg 80%
    23:00 +13°C° 0 mm 5 mps 766 mmHg 80%

    25 May, Friday

    Time Temperature Precipitation Wind Pressure Humidity
    00:00 +13°C° 0 mm 5 mps 766 mmHg 81%
    01:00 +13°C° 0 mm 5 mps 766 mmHg 82%
    02:00 +13°C° 0 mm 5 mps 766 mmHg 83%
    03:00 +13°C° 0 mm 6 mps 765 mmHg 84%
    04:00 +13°C° 0 mm 6 mps 765 mmHg 83%
    05:00 +13°C° 0 mm 6 mps 766 mmHg 83%
    06:00 +14°C° 0 mm 6 mps 766 mmHg 83%
    07:00 +15°C° 0 mm 6 mps 766 mmHg 76%
    08:00 +16°C° 0 mm 6 mps 766 mmHg 70%
    09:00 +18°C° 0 mm 7 mps 766 mmHg 63%
    10:00 +18°C° 0 mm 7 mps 766 mmHg 59%
    11:00 +20°C° 0 mm 8 mps 766 mmHg 56%
    12:00 +21°C° 0 mm 8 mps 766 mmHg 52%
    13:00 +21°C° 0 mm 8 mps 766 mmHg 51%
    14:00 +21°C° 0 mm 8 mps 766 mmHg 51%
    15:00 +20°C° 0 mm 8 mps 766 mmHg 50%
    16:00 +18°C° 0 mm 8 mps 766 mmHg 51%
    17:00 +17°C° 0 mm 7 mps 766 mmHg 53%
    18:00 +16°C° 0 mm 7 mps 767 mmHg 54%
    19:00 +15°C° 0 mm 7 mps 767 mmHg 57%
    20:00 +13°C° 0 mm 6 mps 768 mmHg 60%
    21:00 +11°C° 0 mm 6 mps 768 mmHg 63%
    22:00 +10°C° 0 mm 6 mps 768 mmHg 65%
    23:00 +10°C° 0 mm 6 mps 769 mmHg 68%
    Show more